Reflectivity
-20 -20 -20 -20 -20 -20 -20 -20 -20 -20 -20 -20 -20 -20 -20 -20 -20 -20 -20 -20 -20 -20 -20 -20 -20 -20 -20 -20 -20 -20 -20 -20 -20 -20 -20 -20 -20 -20 -20 -20 -20 -20 -20 -20
-20 -20 -20 -20 -20 -20 -20 -20 -20 -20 -20 -20 -20 -20 -20 -20 -20 -20 -20 -20 -20 -20 -20 -20 -20 -20 -20 -20 -20 -20 -20 -20 -20 -20 -20 -20 -20 -20 -20 -20 -20 -20 -20 -20
-20 -20 -20 -20 -20 -20 -20 -20 -20 -20 -20 -20 -20 -20 -20 -20 -20 -20 -20 -20 -20 -20 -20 -20 -20 -20 -20 -20 -20 -20 -20 -20 -20 -20 -20 -20 -20 -20 -20 -20 -20 -20 -20 -20
-20 -20 -20 -20 -20 -20 -20 -20 -20 -20 -20 -20 -20 -20 -20 -20 -20 -20 -20 -20 -20 -20 -20 -20 -20 -20 -20 -20 -20 -20 -20 -20 -20 -20 -20 -20 -20 -20 -20 -20 -20 -20 -20 -20
-20 -20 -20 -20 -20 -20 -20 -20 -20 -20 -20 -20 -20 -20 -20 -20 -20 -20 -20 -20 -20 -20 -20 -20 -20 -20 -20 -20 -20 -20 -20 -20 -20 -20 -20 -20 -20 -20 -20 -20 -20 -20 -20 -20
-20 -20 -20 -20 -20 -20 -20 -20 -20 -20 -20 -20 -20 -20 -20 -20 -20 -20 -20 -20 -20 -20 -20 -20 -20 -20 -20 -20 -20 -20 -20 -20 -20 -20 -20 -20 -20 -20 -20 -20 -20 -20 -20 -20
-20 -20 -20 -20 -20 -20 -20 -20 -20 -20 -20 -20 -20 -20 -20 -20 -20 -20 -20 -20 -20 -20 -20 -20 -20 -20 -20 -20 -20 -20 -20 -20 -20 -20 -20 -20 -20 -20 -20 -20 -20 -20 -20 -20
-20 -20 -20 -20 -20 -20 -20 -20 -20 -20 -20 -20 -20 -20 -20 -20 -20 -20 -20 -20 -20 -20 -20 -20 -20 -20 -20 -20 -20 -20 -20 -20 -20 -20 -20 -20 -20 -20 -20 -20 -20 -20 -20 -20
-20 -20 -20 -20 -20 -20 -20 -20 -20 -20 -20 -20 -20 -20 -20 -20 -20 -20 -20 -20 -20 -20 -20 -20 -20 -20 -20 -20 -20 -20 -20 -20 -20 -20 -20 -20 -20 -20 -20 -20 -20 -20 -20 -20
-20 -20 -20 -20 -20 -20 -20 -20 -20 -20 -20 -20 -20 -20 -20 -20 -20 -20 -20 -20 -20 -20 -20 -20 -20 -20 -20 -20 -20 -20 -20 -20 -20 -20 -20 -20 -20 -20 -20 -20 -20 -20 -20 -20
-20 -20 -20 -20 -20 -20 -20 -20 -20 -20 -20 -20 -20 -20 -20 -20 -20 -20 -20 -20 -20 -20 -20 -20 -20 -20 -20 -20 -20 -20 -20 -20 -20 -20 -20 -20 -20 -20 -20 -20 -20 -20 -20 -20
-20 -20 -20 -20 -20 -20 -20 -20 -20 -20 -20 -20 -20 -20 -20 -20 -20 -20 -20 -20 -20 -20 -20 -20 -20 -20 -20 -20 -20 -20 -20 -20 -20 -20 -20 -20 -20 -20 -20 -20 -20 -20 -20 -20
-20 -20 -20 -20 -20 -20 -20 -20 -20 -20 -20 -20 -20 -20 -20 -20 -20 -20 -20 -20 -20 -20 -20 -20 -20 -20 -20 -20 -20 -20 -20 -20 -20 -20 -20 -20 -20 -20 -20 -20 -20 -20 -20 -20
-20 -20 -20 -20 -20 -20 -20 -20 -20 -20 -20 -20 -20 -20 -20 -20 -20 -20 -20 -20 -20 -20 -20 -20 -20 -20 -20 -20 -20 -20 -20 -20 -20 -20 -20 -20 -20 -20 -20 -20 -20 -20 -20 -20
-20 -20 -20 -20 -20 -20 -20 -20 -20 -20 -20 -20 -20 -20 -20 -20 -20 -20 -20 -20 -20 -20 -20 -20 -20 -20 -20 -20 -20 -20 -20 -20 -20 -20 -20 -20 -20 -20 -20 -20 -20 -20 -20 -20
-20 -20 -20 -20 -20 -20 -20 -20 -20 -20 -20 -20 -20 -20 -20 -20 -20 -20 -20 -20 -20 -20 -20 -20 -20 -20 -20 -20 -20 -20 -20 -20 -20 -20 -20 -20 -20 -20 -20 -20 -20 -20 -20 -20
-20 -20 -20 -20 -20 -20 -20 -20 -20 -20 -20 -20 -20 -20 -20 -20 -20 -20 -20 -20 -20 -20 -20 -20 -20 -20 -20 -20 -20 -20 -20 -20 -20 -20 -20 -20 -20 -20 -20 -20 -20 -20 -20 -20
-20 -20 -20 -20 -20 -20 -20 -20 -20 -20 -20 -20 -20 -20 -20 -20 -20 -20 -20 -20 -20 -20 -20 -20 -20 -20 -20 -20 -20 -20 -20 -20 -20 -20 -20 -20 -20 -20 -20 -20 -20 -20 -20 -20
-20 -20 -20 -20 -20 -20 -20 -20 -20 -20 -20 -20 -20 -20 -20 -20 -20 -20 -20 -20 -20 -20 -20 -20 -20 -20 -20 -20 -20 -20 -20 -20 -20 -20 -20 -20 -20 -20 -20 -20 -20 -20 -20 -20
-20 -20 -20 -20 -20 -20 -20 -20 -20 -20 -20 -20 -20 -20 -20 -20 -20 -20 -20 -20 -20 -20 -20 -20 -20 -20 -20 -20 -20 -20 -20 -20 -20 -20 -20 -20 -20 -20 -20 -20 -20 -20 -20 -20
-20 -20 -20 -20 -20 -20 -20 -20 -20 -20 -20 -18 -20 -20 -20 -20 -20 -20 -20 -20 -20 -20 -20 -20 -20 -20 -20 -20 -20 -20 -20 -20 -20 -20 -20 -20 -20 -20 -20 -20 -20 -20 -20 -20
-20 -20 -20 -20 -20 -20 -20 -20 -20 -20 -20 -20 -20 -20 -20 -20 -20 -20 -20 -20 -20 -20 -20 -20 -20 -20 -20 -20 -20 -20 -20 -20 -20 -20 -20 -20 -20 -20 -20 -20 -20 -20 -20 -20
-20 -20 -20 -20 -20 -20 -20 -20 -20 -20 -20 -20 -20 -20 -20 -20 -20 -20 -20 -20 -20 -20 -20 -20 -20 -20 -20 -20 -20 -20 -20 -20 -20 -20 -20 -20 -20 -20 -20 -20 -20 -20 -20 -20
-20 -20 -20 -20 -20 -20 -20 -20 -20 -20 -20 -20 -20 -20 -20 -20 -20 -20 -20 -20 -20 -20 -20 -20 -20 -20 -20 -20 -20 -20 -20 -20 -20 -20 -20 -20 -20 -20 -20 -20 -20 -20 -20 -20
-20 -20 -20 -20 -20 -20 -20 -20 -20 -20 -20 -20 -20 -20 -20 -20 -20 -20 -20 -20 -20 -20 -20 -20 -20 -20 -20 -20 -20 -20 -20 -20 -20 -20 -20 -20 -20 -20 -20 -20 -20 -20 -20 -20
-20 -20 -20 -20 -20 -20 -20 -20 -20 -20 -20 -20 -20 -20 -20 -20 -20 -20 -20 -20 -20 -20 -20 -20 -20 -20 -20 -20 -20 -20 -20 -20 -20 -20 -20 -20 -20 -20 -20 -20 -20 -20 -20 -20
Wind_Speed
4 4 2 3 4 4 4 2 2 3 1 3 3 8 15 7 4 7 9 10 11 12 5 8 9 10 11 11 11 12 12 12 8 5 5 6 7 6 8 8 11 11 10 11
5 1 3 5 4 3 2 1 3 4 1 1 4 12 6 4 4 3 5 8 11 8 9 8 8 8 11 12 13 12 14 12 11 9 5 4 3 5 6 5 10 12 12 12
5 1 5 3 2 3 1 3 2 3 4 1 5 6 4 2 3 3 5 5 6 10 11 7 8 11 9 13 14 14 14 14 12 13 6 3 2 3 4 6 7 10 12 13
3 0 4 2 1 4 2 3 2 2 3 2 3 3 4 2 6 3 4 4 6 7 6 6 7 9 12 13 9 12 12 13 12 12 10 13 10 9 7 7 6 7 11 13
4 5 3 2 3 3 3 2 1 1 1 2 1 0 5 2 2 3 2 3 3 3 5 6 7 8 8 7 10 10 11 11 11 12 12 10 12 10 7 5 8 9 9 12
0 1 2 3 3 2 5 3 4 3 2 2 1 1 4 5 6 3 2 2 2 2 2 4 5 4 5 4 6 7 10 12 10 11 13 14 14 11 9 9 9 8 8 8
2 2 0 2 4 2 3 4 3 1 1 4 2 1 9 5 5 5 5 3 2 2 2 2 3 4 4 5 6 7 9 11 10 12 13 14 14 12 13 12 9 10 8 8
6 4 7 3 2 6 4 4 5 4 3 3 2 6 5 5 3 4 4 3 3 3 2 3 3 3 4 5 6 7 8 10 9 11 13 12 13 9 10 12 10 9 9 9
6 4 1 2 2 2 4 3 2 6 2 1 3 7 8 4 5 5 7 4 5 4 3 3 3 4 5 4 5 6 7 8 9 10 9 11 11 13 12 13 11 9 11 9
6 2 1 0 2 3 2 3 3 2 4 5 4 6 6 7 10 7 7 8 6 4 3 3 3 3 3 4 3 4 6 7 7 6 8 8 10 12 12 10 13 12 11 11
6 3 1 1 7 9 3 2 3 1 2 4 2 7 7 12 14 14 11 9 8 6 5 4 3 3 3 2 3 3 4 5 5 4 5 7 8 9 9 10 11 11 10 10
5 5 5 7 1 3 3 6 6 5 5 1 1 9 1 5 7 7 10 9 6 6 6 4 4 3 2 2 3 3 3 3 3 3 4 5 6 6 8 9 10 9 10 9
9 3 2 3 3 4 5 6 4 5 3 6 5 7 2 3 4 7 8 8 7 6 6 5 5 6 5 5 4 3 3 3 3 3 3 4 5 6 8 9 8 8 9 10
6 4 7 9 5 6 6 5 5 5 4 5 8 6 5 7 8 7 8 8 8 7 7 5 5 7 6 6 5 5 5 4 3 3 4 5 6 6 7 7 7 8 8 9
5 7 6 6 3 5 6 5 9 10 6 9 3 11 10 8 11 11 11 6 7 9 9 9 9 8 7 7 6 5 6 4 3 4 5 6 5 5 7 7 7 7 7 8
3 4 5 3 3 6 5 7 12 13 4 9 6 20 13 8 4 6 12 10 13 14 14 12 9 8 9 9 7 6 5 4 3 5 6 5 6 6 6 7 7 7 6 7
8 7 4 5 1 3 8 17 14 7 8 13 13 29 6 6 10 14 13 12 15 15 16 15 14 12 11 10 8 8 6 3 4 5 7 6 6 7 7 6 6 6 6 6
8 7 3 3 2 7 6 2 9 22 16 17 8 16 10 10 6 7 8 10 15 14 13 13 11 10 10 5 6 4 5 5 5 6 7 6 6 7 7 7 7 6 4 5
3 7 3 5 6 8 9 7 10 12 15 21 26 28 7 4 2 16 13 14 16 14 12 10 8 7 6 7 6 6 5 5 4 7 6 6 5 7 6 6 7 6 5 5
4 4 6 4 6 10 8 2 6 5 11 13 23 23 20 8 5 19 6 10 12 10 6 8 7 5 6 6 5 5 4 3 5 5 5 6 5 5 7 7 7 4 3 7
5 0 11 5 7 10 10 5 4 8 9 1 14 19 10 12 10 2 2 4 4 7 10 7 7 7 6 6 6 5 3 6 5 4 4 5 5 5 6 6 3 5 6 6
11 10 6 3 6 21 8 6 12 10 2 2 4 6 11 8 7 4 3 4 4 6 7 7 7 6 5 6 5 5 4 4 3 3 4 5 5 4 4 5 5 6 5 6
10 10 10 14 11 5 9 7 10 2 2 3 2 4 7 8 6 7 4 5 5 6 7 5 6 6 5 5 5 4 3 2 3 4 5 4 5 5 4 5 5 6 5 5
6 5 5 3 7 10 9 13 5 7 6 3 3 5 8 6 8 6 5 5 5 5 5 5 6 5 4 5 5 3 2 2 3 4 5 5 4 6 5 4 3 4 5 6
9 13 9 7 2 2 8 10 16 11 7 7 4 6 7 8 6 7 6 6 5 5 4 5 6 5 3 1 1 1 2 2 3 4 4 5 3 4 5 5 4 5 5 2
8 10 12 13 11 12 13 10 14 10 12 16 9 6 6 9 8 7 7 6 6 7 6 5 5 5 4 3 3 3 2 2 3 5 4 3 3 4 4 4 6 2 4 5
Wind_Direction
8 68 224 205 149 131 127 125 255 259 141 319 250 277 286 299 254 267 247 239 241 241 266 239 230 221 218 221 217 218 217 219 196 199 213 233 234 231 236 231 234 231 230 227
28 218 202 118 132 111 98 74 296 288 307 4 344 292 275 273 266 232 253 248 248 249 252 243 231 216 212 220 217 214 219 211 204 204 199 202 202 224 234 229 233 230 228 226
154 235 133 125 115 112 174 182 235 235 322 195 316 292 324 294 311 280 252 249 252 248 260 255 231 221 212 220 215 214 216 215 209 208 194 192 215 247 238 230 239 230 227 226
219 278 147 115 175 132 295 176 141 302 13 262 0 260 284 295 305 259 277 266 263 258 247 239 229 218 216 226 214 218 216 216 214 200 207 214 224 233 227 235 231 228 220 229
250 159 152 157 221 153 217 102 81 82 87 3 299 99 262 324 226 227 236 260 272 254 230 231 222 225 224 218 217 217 214 218 213 200 210 214 230 240 251 241 243 238 228 226
113 321 152 176 69 73 148 93 50 57 43 337 0 121 269 193 194 194 225 258 272 277 244 237 241 223 229 221 218 213 212 223 210 205 209 216 227 233 241 243 248 248 243 232
346 224 97 134 102 34 83 63 355 355 353 222 17 12 249 232 220 186 180 207 254 271 247 238 224 213 226 225 216 210 212 231 211 212 217 219 228 228 236 246 246 250 246 236
167 268 177 180 194 177 177 158 166 223 204 272 12 234 247 222 233 227 263 262 280 262 242 249 250 237 235 229 215 210 217 234 215 217 227 222 225 229 235 241 239 246 244 249
143 265 66 70 121 128 177 186 168 105 29 345 237 281 279 219 270 241 232 243 234 224 243 263 256 234 238 233 225 214 219 239 229 227 228 228 228 228 234 239 239 240 246 248
198 108 338 150 120 40 161 144 93 15 174 242 263 271 237 204 214 217 222 221 231 233 260 252 245 241 240 240 235 225 227 244 252 238 233 238 235 233 237 241 241 239 246 243
142 132 311 84 203 179 134 190 62 139 165 181 273 259 211 201 194 193 206 209 211 219 229 231 238 243 241 238 221 231 235 254 269 259 252 246 248 241 241 243 248 246 250 244
196 134 175 198 225 171 178 187 162 136 198 89 143 274 222 229 208 188 200 205 209 225 229 233 243 256 254 224 219 220 224 249 260 271 259 258 259 247 243 245 247 245 248 242
183 210 94 2 12 352 219 199 142 105 103 198 148 262 347 270 230 217 210 214 213 218 233 243 246 233 225 221 225 238 239 251 268 265 271 275 268 257 255 255 251 244 244 245
114 162 179 193 190 129 193 189 183 152 147 165 227 284 278 230 223 214 222 224 214 212 217 233 240 230 227 224 221 230 241 236 263 263 269 273 273 265 263 266 258 252 250 253
163 210 182 240 206 174 191 173 179 204 186 186 234 213 237 224 213 216 221 207 214 227 224 222 225 224 224 222 220 226 235 228 223 248 261 268 280 279 286 280 270 267 258 258
187 212 158 261 179 210 245 214 194 217 233 271 297 269 210 230 230 217 220 202 216 223 229 223 221 220 223 216 210 210 224 224 213 255 272 285 297 302 287 285 281 273 270 260
156 140 124 259 48 148 279 218 188 187 206 206 222 243 166 227 223 231 226 209 220 218 227 228 223 215 217 212 197 207 209 206 237 265 275 282 293 294 292 294 287 279 271 265
150 139 140 185 82 242 246 135 188 204 220 209 245 251 202 219 232 252 213 211 222 220 224 225 220 214 214 198 197 179 197 223 250 270 277 292 298 294 301 304 297 289 277 280
172 129 151 170 205 305 288 199 172 175 247 206 222 241 214 201 38 274 221 219 221 205 209 208 199 191 175 194 190 184 200 235 258 271 295 294 299 298 305 306 303 305 295 294
80 58 153 144 199 222 234 260 148 132 271 220 209 232 234 138 220 253 164 221 226 210 180 185 186 169 174 191 169 179 210 249 267 280 278 295 308 306 302 292 296 291 279 285
138 127 203 182 229 277 243 165 171 149 247 57 189 219 158 195 208 273 141 189 211 196 181 162 162 168 172 153 152 197 230 247 262 278 293 307 309 296 291 295 289 296 304 299
162 164 181 122 208 248 164 90 181 214 242 214 201 202 196 206 196 202 203 165 146 131 143 155 149 158 153 153 162 210 244 254 291 312 298 297 299 309 300 285 296 296 295 299
207 185 190 189 211 226 195 204 208 160 208 227 211 208 196 197 215 200 216 169 151 134 129 137 143 146 154 165 178 223 240 330 320 290 291 297 307 309 298 293 308 312 314 299
236 158 203 135 206 221 217 235 264 211 217 224 217 184 177 194 204 200 187 187 170 155 147 141 138 157 176 169 180 215 275 270 253 281 296 305 312 305 300 298 293 294 305 314
179 150 181 258 255 304 255 238 235 223 226 254 242 191 208 191 209 192 181 181 182 169 148 150 166 186 229 313 308 239 223 209 265 274 275 285 280 288 304 301 297 309 303 276
183 174 196 235 176 215 228 212 223 200 214 225 215 228 218 191 187 176 181 180 169 174 163 170 192 200 214 212 228 248 233 212 250 274 277 275 292 300 298 306 315 256 278 317